This is the latest recevied weather packets stored in our database for station/object WA6OOO. If no packets are shown the sender has not sent any weather packets the latest 10 day(s).
| Time | Temp. | Humidity | Pressure | Rain* | Wind** | Luminosity | Snow |
|---|---|---|---|---|---|---|---|
| 1777570332 | 18.33° C | 72% | 1016.3 hPa | 0 mm | - | 629 W/m² | - |
| 1777570028 | 18.89° C | 71% | 1016.3 hPa | 0 mm | - | 619 W/m² | - |
| 1777569724 | 18.89° C | 71% | 1016.4 hPa | 0 mm | - | 610 W/m² | - |
| 1777569419 | 17.78° C | 73% | 1016.2 hPa | 0 mm | - | 602 W/m² | - |
| 1777569116 | 18.89° C | 70% | 1016.3 hPa | 0 mm | - | 591 W/m² | - |
| 1777568814 | 18.33° C | 71% | 1016.3 hPa | 0 mm | - | 579 W/m² | - |
| 1777568511 | 18.33° C | 71% | 1016.3 hPa | 0 mm | - | 565 W/m² | - |
| 1777568207 | 18.33° C | 72% | 1016.2 hPa | 0 mm | - | 551 W/m² | - |
| 1777567904 | 17.78° C | 73% | 1016.3 hPa | 0 mm | - | 540 W/m² | - |
| 1777567600 | 17.78° C | 73% | 1016.5 hPa | 0 mm | - | 529 W/m² | - |
| 1777567297 | 17.78° C | 73% | 1016.3 hPa | 0 mm | - | 513 W/m² | - |
| 1777566996 | 17.78° C | 75% | 1016.4 hPa | 0 mm | - | 489 W/m² | - |
| 1777566693 | 17.78° C | 74% | 1016.4 hPa | 0 mm | - | 481 W/m² | - |
| 1777566391 | 17.78° C | 73% | 1016.3 hPa | 0 mm | - | 470 W/m² | - |
| 1777566088 | 17.78° C | 73% | 1016.3 hPa | 0 mm | - | 447 W/m² | - |
| 1777565783 | 17.78° C | 73% | 1016.3 hPa | 0 mm | - | 437 W/m² | - |
| 1777565480 | 17.22° C | 74% | 1016.4 hPa | 0 mm | - | 420 W/m² | - |
| 1777565177 | 17.22° C | 76% | 1016.3 hPa | 0 mm | - | 408 W/m² | - |
| 1777564873 | 17.22° C | 75% | 1016.3 hPa | 0 mm | - | 395 W/m² | - |
| 1777564573 | 17.22° C | 75% | 1016.7 hPa | 0 mm | - | 372 W/m² | - |
| 1777564269 | 17.22° C | 75% | 1016.5 hPa | 0 mm | - | 363 W/m² | - |
| 1777563966 | 16.67° C | 77% | 1016.5 hPa | 0 mm | - | 347 W/m² | - |
| 1777563663 | 16.67° C | 76% | 1016.5 hPa | 0 mm | - | 330 W/m² | - |
| 1777563362 | 16.67° C | 76% | 1016.5 hPa | 0 mm | - | 313 W/m² | - |
| 1777563058 | 16.11° C | 77% | 1016.6 hPa | 0 mm | - | 298 W/m² | - |
* Rain latest hour (hover to see other rain measurements)
** Current wind speed in m/s (hover to see current wind gust speed)